Regional Weather Roundup
Issued by NWS

Home | Current Version | Previous Version | Text Only | Print | Product List | Glossary Off
Versions: 1 2 3 4 5 6 7 8 9 10 11 12 13 14 15 16 17 18 19 20 21 22 23 24 25 26 27

000
ASUS45 KCYS 192310
RWRWY

WYOMING REGIONAL WEATHER ROUNDUP
NATIONAL WEATHER SERVICE CHEYENNE WY
400 PM MST THU JAN 19 2017

NOTE:  "FAIR" INDICATES FEW OR NO CLOUDS BELOW 12,000 FEET
WITH NO SIGNIFICANT WEATHER AND/OR OBSTRUCTIONS TO VISIBILITY.

WYZ001-200000-
YELLOWSTONE NATIONAL PARK

CITY           SKY/WX    TMP DP  RH WIND       PRES   REMARKS
LK YELLOWSTONE   N/A     25  22  88 CALM      29.61S
W YELLOWSTONE  NOT AVBL

$$
WYZ002>013-054>058-071-098>099-200000-
NORTHERN WYOMING

CITY           SKY/WX    TMP DP  RH WIND       PRES   REMARKS
JACKSON        FLURRIES  23  23 100 S8        29.63F WCI  14
CODY           FAIR      24  18  77 NE8       29.50R WCI  15
GREYBULL       CLOUDY    22  16  78 NW7       29.52F WCI  13
WORLAND        CLOUDY    28  22  78 E5        29.50F WCI  23
SHERIDAN       FAIR      34  24  67 CALM      29.48S
BUFFALO        FAIR      42  24  49 NW6       29.49S
GILLETTE       FAIR      41  26  55 W17       29.45F
HULETT         FAIR      45  27  49 SW8       29.48R
NEWCASTLE      FAIR      41  28  60 CALM      29.51R

$$
WYZ014>020-022>026-101>103-200000-
CENTRAL WYOMING

CITY           SKY/WX    TMP DP  RH WIND       PRES   REMARKS
BIG PINEY      FLURRIES  14  11  87 CALM      29.67S
PINEDALE       CLOUDY    19  14  79 CALM      29.66F
DUBOIS         NOT AVBL
LANDER         FAIR      23  15  71 CALM      29.54F
RIVERTON       FAIR     N/A N/A N/A CALM      29.55F
CASPER         FAIR      37  23  56 SW40G48   29.53F WCI  23
DOUGLAS        FAIR      45  23  42 W20       29.53R

$$
WYZ021-027>030-104>119-200000-
SOUTHERN WYOMING

CITY           SKY/WX    TMP DP  RH WIND       PRES   REMARKS
EVANSTON       LGT SNOW  29  26  89 SW15      29.67R VSB 3/4 WCI  18
ROCK SPRINGS   CLOUDY    16  13  88 CALM      29.66F
RAWLINS        NOT AVBL
LARAMIE        FAIR      25  19  78 E9        29.58F WCI  15
CHEYENNE       FAIR      49  14  24 W15       29.53S
TORRINGTON     FAIR      52  19  27 W15G23    29.49R

$$




USA.gov is the U.S. government's official web portal to all federal, state and local government web resources and services.